Вернуться в каталог

GONETS D1 8

АктивенСвязьPO
NORAD 27059·PAYLOAD·🇷🇺 Russia

Запущен Dec 28, 2001 с Plesetsk Cosmodrome

Loading…

Ближайшие Пролёты (ближайшие 24 часа)

TLE

СвежийSource: Space-Track

Эпоха: Sep 14, 2026, 13:36 UTC

1 27059U 01058E   26257.56686111  .00000044  00000-0  18861-3 0  9998
2 27059  82.5450 155.5359 0003211  55.0803 305.0589 12.61558377137848

Отслеживайте GONETS D1 8 в реальном времени с AllMySat

Download on the App Store